Theta_e
304 305 305 305 305 305 305 305 306 308 308 308 308 308 309 310 310 310 310 311 314 320 318 322 321 321 321 342 348 351 354 354 354 355 355 353 352 351 352 351 350 350 348 348 347
304 305 306 306 307 306 306 305 306 307 309 309 308 309 309 310 310 311 316 311 313 320 319 321 319 321 328 337 347 348 353 353 350 350 349 351 351 349 347 350 351 349 347 347 346
304 305 307 308 308 308 308 307 306 307 309 309 308 309 309 310 311 324 316 311 318 320 320 321 320 326 330 333 337 344 349 347 348 351 348 348 350 345 347 351 351 348 346 347 346
305 306 308 309 309 309 308 308 306 307 310 309 308 309 309 309 320 322 316 312 317 319 318 321 323 326 328 332 334 336 338 342 342 350 346 348 351 349 348 351 351 348 347 347 347
308 308 309 310 309 309 308 308 306 308 310 309 308 309 309 311 312 320 319 317 317 318 318 318 322 325 328 329 332 333 335 336 337 348 345 348 349 349 349 350 351 349 347 347 347
309 310 310 310 309 309 308 308 306 309 310 308 309 309 309 312 320 319 319 320 319 319 317 318 323 326 329 332 332 333 334 335 334 337 346 348 347 345 346 351 351 348 347 347 347
310 310 310 309 308 307 307 307 306 310 311 308 311 311 311 312 320 320 319 318 324 318 319 317 324 329 334 334 334 334 333 330 340 350 351 347 349 347 349 351 351 348 348 346 346
310 309 308 306 306 306 306 307 307 311 312 309 313 317 316 323 321 321 320 319 320 325 314 317 323 325 328 332 329 328 323 324 334 352 354 348 354 348 350 350 350 349 348 348 346
306 305 305 305 305 305 306 306 311 313 311 311 314 324 324 325 320 317 318 318 319 321 324 318 317 324 324 326 324 323 330 329 326 350 354 348 352 351 347 350 350 349 348 348 346
305 307 308 307 305 305 306 313 316 316 311 315 315 321 320 320 317 317 317 317 319 321 325 323 321 319 321 324 330 329 329 326 325 331 338 353 352 350 350 351 350 349 348 348 344
309 309 309 308 306 306 313 315 316 318 316 316 321 317 320 319 316 316 317 317 324 326 322 323 321 324 326 325 326 326 325 325 324 324 325 342 353 349 349 352 350 348 348 348 346
309 309 309 309 305 308 315 316 315 315 314 315 316 316 317 317 318 316 317 319 323 324 323 324 325 325 326 326 326 326 326 325 324 323 322 346 353 349 346 350 350 348 348 348 347
310 310 309 307 310 314 316 316 315 315 312 314 315 315 316 316 316 316 318 320 323 323 325 326 328 327 328 328 327 325 324 325 325 323 340 350 353 351 348 345 346 349 348 348 347
311 311 310 312 315 316 316 315 315 314 308 312 315 316 316 315 314 316 320 318 317 323 324 326 326 327 326 328 325 326 324 326 325 321 322 326 322 350 350 348 346 343 343 344 348
312 312 310 309 315 315 315 315 316 315 315 316 314 314 315 314 315 315 315 315 316 316 316 321 319 326 326 325 324 325 324 323 323 320 319 321 322 326 350 352 348 345 345 344 347
313 312 311 312 315 315 315 315 316 310 317 314 314 313 313 313 314 315 316 316 315 315 314 316 317 319 320 324 323 324 323 317 314 316 320 319 319 320 348 351 347 344 344 345 345
313 315 313 311 315 315 315 317 312 315 315 317 313 313 311 312 313 314 314 311 312 312 312 313 314 314 315 316 316 316 316 318 321 320 320 316 319 320 332 342 345 344 345 344 345
316 316 316 317 316 316 317 312 316 317 316 315 316 313 315 313 312 313 312 311 312 310 310 312 314 314 315 315 316 315 315 317 322 320 320 316 321 321 320 329 341 343 344 343 346
317 317 317 317 317 317 316 313 314 315 314 315 315 316 315 315 315 313 313 312 313 311 312 313 315 314 315 314 314 315 314 316 315 315 319 319 320 322 327 329 337 340 342 343 346
318 317 316 317 317 317 313 314 314 313 313 314 315 314 314 314 315 313 313 313 314 313 310 313 314 313 314 314 314 313 312 315 312 321 323 320 322 321 327 328 327 329 335 339 344
318 317 315 317 317 317 316 314 313 313 314 313 313 313 312 313 312 312 312 313 313 313 311 310 310 312 312 313 314 311 311 310 309 313 318 320 321 322 326 326 326 327 334 340 335
317 311 315 317 314 309 308 311 313 311 312 311 311 310 311 311 310 311 312 312 314 312 313 310 307 311 313 311 312 311 312 309 312 314 312 315 319 321 321 324 327 331 339 342 340
317 314 314 317 310 307 310 311 312 310 309 310 310 310 309 309 311 310 312 312 314 313 313 311 308 310 311 310 310 310 312 310 307 306 311 313 316 315 316 321 326 332 335 339 343
315 309 313 313 311 309 310 309 312 311 310 310 309 308 308 308 306 310 310 310 311 314 316 311 306 308 310 312 311 313 313 311 309 309 311 312 313 314 314 318 321 324 336 339 343
315 311 311 309 309 307 307 309 311 311 310 310 310 309 309 309 308 309 308 307 309 310 311 307 310 312 311 310 312 312 313 313 312 312 313 313 313 313 313 318 325 326 330 337 339
317 315 312 310 309 307 306 309 311 311 310 310 310 310 309 309 310 311 309 308 308 308 306 306 311 312 311 311 311 311 310 311 312 312 312 312 313 318 322 323 322 323 326 332 328
317 316 313 310 308 309 309 311 312 311 311 311 310 309 310 311 311 311 311 310 309 308 306 307 307 307 310 310 309 306 312 312 312 315 313 314 317 318 318 319 320 319 322 329 328
Wind_Speed
19 19 18 17 17 17 16 17 16 14 13 12 13 12 12 12 13 13 14 8 16 15 19 18 16 12 14 12 7 5 2 2 3 3 2 4 2 6 2 6 0 4 11 30 34
20 20 19 19 17 16 16 16 16 15 15 14 12 12 11 11 14 16 7 11 22 14 26 23 19 18 8 9 8 4 2 6 5 4 4 10 6 8 4 6 3 13 30 35 35
20 20 20 20 20 18 16 16 16 15 15 14 12 10 10 10 10 4 2 18 24 18 19 16 15 16 5 6 8 7 5 4 4 11 18 7 11 16 13 6 6 25 38 37 36
21 21 21 20 21 20 18 16 15 14 15 14 11 10 8 6 2 4 9 16 23 19 19 18 17 11 5 5 11 3 15 15 4 16 16 16 21 8 13 4 12 26 35 41 38
23 21 22 21 20 20 19 17 15 13 14 11 10 8 4 4 5 4 5 13 20 21 21 20 21 8 5 5 6 6 9 8 13 18 21 17 12 7 16 9 11 26 34 32 35
24 24 22 22 21 20 18 17 15 12 11 7 8 7 3 3 6 6 4 4 13 20 22 22 18 20 7 4 4 5 8 15 19 18 17 11 8 2 5 11 17 29 36 33 34
25 25 25 23 22 21 18 15 13 11 8 6 6 5 7 6 7 8 3 2 2 8 23 24 11 14 3 4 6 15 10 8 3 16 8 18 5 1 10 11 24 28 36 31 34
25 25 25 23 22 20 18 14 11 9 7 3 3 2 6 6 10 10 8 7 4 3 10 18 20 6 3 5 5 3 4 3 3 11 10 6 4 4 11 12 20 27 33 35 33
24 24 23 22 21 18 15 11 8 7 4 3 4 3 4 7 9 6 11 8 7 8 8 8 16 7 2 1 4 6 1 1 3 15 7 5 4 17 22 24 22 28 33 34 32
22 23 22 20 20 15 8 9 3 4 4 4 6 2 2 3 8 8 9 7 7 13 8 7 8 4 2 4 4 2 1 2 2 4 5 8 9 10 23 29 31 31 32 34 34
23 23 23 21 16 10 3 3 1 1 6 7 2 4 6 8 7 7 10 12 9 10 5 7 4 5 7 7 6 3 3 3 4 6 2 9 8 17 16 21 26 36 32 37 36
23 23 22 19 9 0 4 3 7 4 8 12 12 15 14 8 4 8 10 8 6 5 4 5 4 8 3 6 5 3 3 4 6 6 3 3 7 7 4 8 28 39 33 31 33
23 22 19 11 4 3 6 13 12 4 1 7 9 9 7 5 5 4 11 5 4 5 4 5 4 4 3 1 1 2 5 3 6 6 5 6 4 5 2 5 10 19 25 28 35
22 20 15 5 5 6 8 11 7 1 4 5 4 4 6 5 1 7 8 4 2 8 6 4 4 6 5 5 6 4 8 6 4 3 1 2 3 6 12 6 10 19 23 24 34
19 16 9 2 3 7 8 5 5 1 4 0 2 7 12 4 6 5 5 3 5 3 6 6 2 4 4 8 8 9 6 6 5 4 4 3 3 4 9 11 18 26 26 28 31
15 12 5 4 5 6 8 5 2 4 3 2 3 3 5 3 1 6 2 4 3 4 2 4 2 3 6 5 9 6 2 6 5 4 2 6 5 5 5 15 15 23 29 27 27
8 7 5 3 3 7 8 1 4 4 6 7 3 2 3 2 1 2 2 6 3 4 3 5 4 4 6 2 5 6 6 2 3 1 5 4 4 8 8 11 18 26 38 32 38
7 10 9 6 5 7 6 5 8 5 4 5 4 5 5 4 7 7 5 7 9 6 4 3 3 6 8 2 1 2 6 5 5 3 3 4 5 2 7 19 18 29 33 27 34
5 6 12 10 8 9 2 6 1 3 5 7 3 7 8 6 5 5 7 7 5 6 5 3 3 5 5 6 2 3 4 2 7 3 3 2 5 3 8 14 16 7 12 20 31
3 7 19 8 8 11 6 5 3 8 6 5 5 7 6 9 5 5 6 6 6 11 0 1 2 2 5 4 9 6 2 2 4 4 4 4 3 1 7 8 8 11 12 11 21
6 3 22 5 7 9 4 3 4 14 9 7 4 5 3 4 5 4 7 3 7 5 13 3 3 5 2 6 4 6 5 5 4 4 4 3 3 2 3 5 7 11 17 21 24
13 4 20 4 6 4 3 4 6 13 14 7 5 5 4 7 7 5 6 8 19 4 4 5 4 3 3 7 7 15 4 4 4 4 1 1 2 6 9 8 10 16 21 26 20
5 11 21 4 4 3 5 6 12 10 7 5 8 6 6 5 5 4 5 11 21 5 2 3 4 3 5 6 8 7 6 4 4 3 2 2 3 13 16 12 19 19 26 26 18
4 4 11 22 10 6 3 6 3 14 11 10 5 6 6 7 7 4 4 8 13 15 13 7 4 4 5 3 3 2 3 5 5 4 3 4 7 13 17 10 18 26 28 25 20
6 3 3 3 9 6 5 3 4 5 5 8 5 6 2 4 3 3 4 6 5 15 8 5 3 2 4 5 3 4 2 2 3 3 4 6 6 11 10 12 18 20 21 32 28
5 4 7 5 2 7 5 4 4 3 3 3 5 5 6 4 3 1 2 2 1 7 5 5 2 2 3 5 3 1 3 6 7 7 6 5 9 6 15 21 25 28 22 19 23
10 9 4 8 3 4 2 2 1 2 7 3 4 3 3 3 4 7 6 5 3 2 3 3 4 3 3 6 8 5 4 3 1 1 4 7 2 10 8 15 20 26 28 26 18
Wind_Direction
340 339 337 337 336 334 333 332 331 323 319 316 311 309 303 299 299 285 269 238 195 184 184 180 181 176 176 189 180 216 289 258 170 172 123 106 70 21 337 294 195 241 157 159 158
336 336 335 333 334 331 329 329 327 323 319 314 309 308 307 306 301 296 260 200 183 177 172 175 172 170 172 177 205 192 203 220 219 99 147 140 121 121 5 310 114 89 145 154 160
335 334 333 331 329 329 327 326 324 320 318 315 308 304 310 314 317 25 294 179 172 155 166 173 174 164 181 169 198 196 231 192 136 113 139 115 144 152 181 257 225 147 149 160 164
336 332 331 329 326 324 323 323 319 317 317 313 304 303 309 308 152 81 78 162 173 166 164 171 167 174 172 201 210 260 235 248 109 142 140 157 162 180 188 253 222 174 162 165 170
333 331 328 326 323 320 319 319 315 313 316 310 299 295 312 284 250 170 116 158 176 180 182 178 175 168 178 202 222 249 274 266 263 184 166 148 182 173 198 226 214 171 165 169 176
329 327 325 323 320 316 313 315 310 308 317 309 301 274 267 264 144 144 118 145 192 191 185 187 188 181 198 235 195 234 279 270 278 241 154 157 140 204 200 195 190 173 170 174 180
329 325 323 321 318 313 310 310 301 299 306 301 294 266 241 238 170 184 180 45 130 205 195 191 185 190 181 280 297 258 272 287 152 135 147 125 121 241 148 172 180 179 175 170 188
328 326 325 322 318 313 309 307 293 288 291 268 282 221 251 147 181 207 216 224 218 193 199 198 178 215 247 311 326 291 61 48 133 149 159 157 124 181 158 162 181 188 181 182 186
328 326 329 326 317 313 313 304 290 277 251 217 230 277 253 194 218 229 210 223 214 211 161 158 184 209 225 147 14 360 191 135 45 199 147 192 156 224 169 178 197 193 190 187 195
333 330 331 329 319 313 329 317 280 237 191 224 229 304 177 193 188 177 183 202 219 190 187 176 181 131 48 89 194 169 44 330 120 158 135 200 249 206 200 181 187 191 194 190 188
336 332 333 330 323 310 42 149 59 77 249 231 150 271 290 13 202 209 175 171 171 159 141 187 113 187 201 186 183 159 156 274 282 235 247 205 200 202 194 182 190 190 198 200 189
335 332 334 335 325 150 56 75 37 7 296 277 251 260 267 282 311 194 184 164 152 178 134 48 189 212 214 167 182 194 240 278 294 280 152 137 233 187 103 197 191 193 197 205 195
334 331 336 358 75 105 43 9 8 306 243 291 233 226 239 222 218 188 184 167 125 152 145 141 214 172 169 265 210 231 227 188 214 341 44 113 12 177 164 233 213 208 204 213 201
335 331 342 78 89 59 24 358 4 249 62 283 230 196 176 207 181 187 177 143 69 179 150 190 253 190 203 227 147 256 214 223 240 99 250 154 267 247 213 218 245 233 218 217 211
335 329 350 79 79 34 355 312 316 281 75 88 184 148 159 140 133 79 142 153 138 125 99 237 230 171 197 221 166 229 190 208 196 155 105 315 78 260 161 212 234 225 228 229 215
333 337 14 119 77 356 324 287 271 36 82 58 125 137 98 113 52 142 92 95 109 98 350 223 262 154 206 231 179 235 140 53 57 120 83 231 135 286 187 221 234 237 235 231 227
0 20 45 91 6 327 330 327 44 66 327 347 336 85 77 116 96 105 82 28 62 98 21 348 25 345 37 76 28 70 75 353 13 35 196 236 82 240 247 232 212 216 230 221 228
80 56 50 52 357 350 354 60 63 348 328 335 330 71 54 16 18 17 58 23 11 38 76 106 37 10 320 83 240 306 146 153 185 178 220 202 170 299 289 277 232 231 231 214 212
67 36 38 19 342 341 329 61 25 321 296 328 344 55 9 348 90 83 69 20 29 357 114 104 115 328 3 44 56 314 43 289 101 26 71 267 289 273 347 18 18 281 238 229 217
40 33 15 6 358 355 66 86 73 346 342 33 75 24 41 355 46 57 31 317 352 23 318 47 82 351 287 12 25 85 310 59 7 123 152 313 306 245 358 350 2 17 346 284 236
22 41 5 19 8 44 79 83 51 5 38 50 33 60 67 8 37 54 7 38 349 351 51 17 74 295 33 24 348 11 8 16 110 93 145 135 287 300 303 342 342 331 337 311 267
42 42 9 30 51 29 36 354 49 1 32 50 70 71 51 28 30 70 68 15 349 349 50 336 121 56 90 329 110 82 78 92 96 326 33 225 100 356 315 333 2 6 10 354 305
70 39 22 70 89 32 4 50 54 28 15 43 20 40 33 40 86 49 56 353 18 47 43 322 17 41 19 351 11 43 15 55 85 64 66 81 284 336 335 353 2 9 16 20 15
62 31 32 59 71 105 67 16 43 38 43 56 24 54 43 27 18 69 52 359 20 26 40 84 64 119 171 182 216 359 10 72 97 74 295 225 303 325 329 350 345 1 16 30 49
49 48 27 358 17 63 70 28 21 15 45 34 30 50 70 53 47 70 15 348 17 12 27 81 98 111 190 220 221 199 158 99 119 177 151 265 298 308 323 337 349 359 14 52 52
66 48 71 47 8 48 14 351 47 4 54 13 99 91 70 100 142 180 61 55 16 1 44 359 136 46 322 328 329 282 254 218 200 204 223 228 283 6 1 359 0 360 3 24 37
69 72 95 17 23 66 320 353 15 112 44 118 128 87 75 179 270 282 263 228 227 38 33 70 112 78 293 324 328 49 59 58 151 45 238 209 319 336 359 342 1 352 4 9 354